Theta_e
339 339 341 342 346 345 345 345 345 345 346 347 345 347 339 336 337 340 344 356 359 358 357 357 358 358 359 360 361 362 363 363 362 362 362 361 361 360 360 359 359 358 356
338 342 341 343 345 345 346 344 344 343 345 335 335 335 336 336 337 338 342 348 359 360 359 360 361 362 362 362 364 365 366 364 363 363 363 361 360 361 360 360 361 358 354
341 346 346 345 346 344 343 344 344 346 342 338 335 335 337 337 337 338 339 342 347 357 359 360 363 365 365 364 363 365 364 363 360 363 362 360 359 359 360 360 360 360 356
346 349 347 346 346 348 345 347 348 347 341 337 333 338 336 338 339 338 340 342 345 348 351 354 352 353 354 355 355 362 361 362 361 362 362 361 360 358 358 359 359 360 358
351 348 347 349 344 344 342 348 349 344 341 338 337 338 336 338 340 344 342 344 348 349 349 349 350 350 352 354 355 356 362 362 361 362 360 360 357 356 357 357 358 359 359
351 347 344 341 341 341 339 344 344 340 341 339 345 340 339 340 341 337 338 342 343 348 345 347 344 344 346 348 355 356 360 364 364 361 360 359 357 357 358 357 357 357 358
352 349 340 337 336 336 337 342 343 334 336 342 336 334 336 335 334 337 339 341 343 347 347 342 341 339 340 343 352 352 354 367 365 362 358 356 357 358 358 356 355 356 357
351 350 343 338 332 335 335 340 338 331 335 342 338 335 330 334 334 338 339 341 338 345 350 344 344 341 339 343 347 352 353 364 362 355 355 357 357 358 357 356 355 356 355
352 349 347 338 339 340 344 339 335 337 333 335 344 339 329 326 325 332 334 339 338 339 346 348 345 349 343 344 348 349 358 359 354 353 355 358 358 359 359 358 356 356 354
349 351 347 346 344 341 337 344 341 341 332 328 332 341 334 331 325 328 329 336 336 337 337 344 342 344 346 346 349 351 356 353 351 354 354 356 359 360 361 360 359 357 355
349 352 351 346 342 340 343 343 342 339 338 333 327 332 332 331 332 328 320 329 334 338 337 339 340 341 343 345 349 351 355 350 350 353 354 356 357 357 358 357 359 360 360
348 348 351 349 346 345 348 350 349 347 346 342 335 334 335 334 331 333 328 328 330 334 339 339 341 344 344 348 353 355 352 350 348 348 350 352 353 354 354 354 354 353 353
343 345 349 350 350 350 350 351 349 350 348 346 346 344 343 343 341 337 333 333 331 333 335 340 339 342 349 350 351 356 354 345 345 344 344 346 347 348 348 348 348 348 347
345 346 347 351 352 352 351 349 350 347 347 347 347 346 346 346 343 340 340 334 330 327 334 335 342 341 347 352 350 355 347 344 342 341 340 340 341 341 341 342 342 342 344
347 346 349 350 349 352 350 349 350 349 348 346 346 346 346 346 346 344 340 340 335 328 328 336 339 345 347 348 352 351 349 342 342 339 337 335 336 337 337 337 337 338 339
348 345 349 350 350 350 351 348 348 348 347 347 348 345 345 345 346 342 343 341 341 336 329 336 342 342 343 349 349 348 345 341 339 336 333 333 333 334 334 334 334 335 335
349 348 349 350 348 349 350 349 349 349 348 346 345 344 345 346 345 345 344 343 341 339 333 336 342 346 342 337 341 347 343 337 335 332 330 329 329 329 329 329 328 329 330
346 349 348 349 348 349 349 349 348 352 347 346 347 346 345 349 344 344 342 342 342 343 339 335 337 339 341 337 340 343 343 338 332 329 327 326 325 324 323 323 322 322 323
348 349 349 349 349 350 349 350 349 349 347 348 349 346 345 346 343 343 343 343 342 346 342 339 334 339 342 344 339 340 334 330 330 325 325 324 323 322 320 318 317 316 315
347 347 349 349 349 349 349 349 349 350 349 349 349 347 347 345 343 343 344 342 344 341 337 335 335 335 339 340 340 333 336 333 327 328 323 322 323 323 321 319 317 316 314
348 347 349 349 347 348 346 344 347 347 347 345 345 346 347 347 342 340 343 342 341 338 336 334 332 334 332 334 334 335 334 338 333 330 324 322 323 315 314 320 320 315 315
343 343 346 346 343 336 331 337 340 340 341 343 342 344 344 341 339 336 336 335 339 337 334 334 332 331 331 333 333 332 332 333 331 334 324 320 323 315 308 310 316 315 315
344 345 342 335 327 327 328 331 335 334 336 339 337 339 342 338 337 334 330 330 330 330 332 333 332 335 332 332 327 331 332 330 331 336 328 321 323 313 308 309 315 314 314
339 338 338 327 321 317 321 322 331 335 340 336 331 334 332 323 318 324 332 337 331 323 322 327 333 332 327 322 322 324 325 329 331 328 334 330 314 312 313 308 315 315 314
337 337 329 321 317 315 319 320 330 338 334 326 322 322 326 319 316 317 326 329 333 326 320 322 321 319 318 319 324 325 321 320 324 329 316 326 320 314 312 311 312 315 313
324 321 319 316 317 316 314 315 324 332 332 321 320 320 319 317 314 313 313 319 322 327 323 332 322 319 319 322 321 320 319 315 317 321 313 316 324 314 309 313 307 308 309
Wind_Speed
4 3 3 3 3 4 4 4 4 4 5 7 6 6 5 5 5 3 3 12 10 10 9 10 10 10 11 11 11 11 10 11 9 7 5 5 5 4 3 3 5 6 6
3 3 3 4 4 4 4 4 4 3 3 2 3 3 7 6 6 5 3 4 10 9 10 10 12 13 13 13 12 11 11 11 8 7 4 4 5 6 4 3 2 3 3
5 2 2 4 4 2 2 3 2 1 2 2 4 5 5 6 5 6 5 4 3 6 9 10 12 14 15 20 21 15 10 10 8 7 5 4 7 6 5 5 2 1 4
4 2 2 3 2 3 4 3 4 4 1 0 1 1 4 5 5 2 3 2 1 1 6 11 10 15 17 20 25 27 15 9 7 7 7 5 6 6 5 4 3 2 4
5 4 3 3 2 3 4 3 4 3 2 1 2 3 2 1 4 4 6 7 4 4 4 5 5 6 10 16 21 25 24 11 7 6 7 7 6 6 6 5 3 2 3
4 5 2 1 3 3 3 4 3 3 1 1 2 1 1 3 4 4 4 4 1 3 4 5 6 4 2 9 16 20 29 11 8 5 5 9 7 7 7 6 4 3 5
5 5 3 2 5 4 2 2 4 3 5 2 3 3 4 5 4 4 3 1 3 4 6 4 0 5 2 6 14 15 24 13 9 3 4 7 7 5 7 7 6 5 5
5 5 5 2 4 4 2 1 6 1 3 3 3 2 4 3 3 1 2 4 2 3 6 6 7 5 3 2 8 17 21 15 8 2 2 4 5 4 3 5 7 6 5
6 6 6 6 4 3 2 2 4 7 1 2 5 3 3 2 2 3 2 3 4 3 4 5 8 8 5 4 6 13 16 10 7 3 1 1 4 5 2 2 5 7 5
6 6 6 6 5 3 2 1 4 4 4 1 2 3 4 4 2 5 1 3 5 7 5 3 3 5 7 5 10 15 11 8 5 3 1 2 4 6 5 2 4 6 7
5 6 8 7 6 4 3 2 2 4 3 2 3 2 3 2 2 2 4 6 1 6 4 4 4 5 6 7 3 6 6 10 6 2 2 5 6 7 8 8 6 4 6
4 5 7 6 5 4 4 4 3 5 4 4 3 3 4 3 2 4 3 3 4 5 3 5 5 5 5 3 6 9 8 9 3 2 4 5 6 6 7 7 8 8 7
3 6 5 6 4 5 6 5 4 4 4 2 3 3 3 4 4 2 2 4 4 3 4 1 3 3 4 3 4 5 8 6 5 5 5 6 6 6 6 6 7 8 6
4 4 6 6 6 6 4 4 2 2 2 2 4 4 2 3 3 4 4 3 3 2 2 4 1 3 3 2 3 6 5 5 3 4 6 8 7 7 7 8 8 9 10
4 6 6 6 6 5 5 4 3 4 2 2 3 2 2 2 3 2 2 3 4 1 2 3 0 4 3 3 4 1 5 3 6 6 7 8 8 8 7 7 8 9 11
5 6 6 6 5 5 5 5 3 3 3 3 3 2 1 2 1 2 3 2 2 4 2 3 1 1 2 1 4 5 6 6 7 9 7 6 8 10 8 9 10 11 12
6 7 6 6 6 6 6 5 5 5 5 4 3 4 6 2 3 3 1 1 1 3 3 3 2 1 1 3 3 3 3 4 3 8 6 7 10 10 9 9 10 10 10
6 7 6 6 6 6 6 6 6 5 5 5 5 4 5 3 4 4 3 3 2 2 3 3 1 2 3 2 1 2 2 3 3 7 8 7 10 10 9 8 10 9 9
7 6 6 6 6 6 6 6 6 6 5 5 5 5 6 5 5 3 3 3 3 2 2 2 3 2 4 2 2 1 2 3 3 8 8 10 10 10 9 8 8 10 9
7 7 6 6 6 5 5 5 5 6 5 5 5 5 6 5 5 5 4 5 3 3 2 2 3 3 3 2 2 2 3 2 2 3 4 6 7 8 7 6 6 8 7
9 7 6 6 6 5 4 6 5 6 5 3 3 3 3 3 1 2 2 3 3 3 3 3 2 1 2 2 1 1 2 1 2 3 2 2 2 3 2 3 4 4 5
7 6 6 6 6 3 3 6 5 5 4 2 1 3 1 4 1 2 3 4 3 3 3 3 2 3 3 2 2 1 2 2 3 4 3 3 3 2 2 2 4 3 4
8 8 6 6 6 4 3 3 2 3 4 3 3 4 4 4 3 3 2 2 5 6 3 1 2 3 2 2 1 2 1 1 2 3 4 3 4 3 1 2 3 3 5
6 5 7 8 7 4 4 3 2 3 4 5 4 4 5 4 5 4 3 0 2 3 4 2 1 1 1 1 1 2 2 3 2 3 2 2 2 3 2 2 5 1 2
8 8 7 8 8 3 5 1 3 3 4 6 5 5 5 5 9 9 4 4 3 2 3 7 8 6 6 5 3 0 2 2 2 1 4 1 3 2 3 2 3 6 4
10 8 8 7 9 4 10 10 5 3 6 5 4 5 9 5 3 4 4 3 4 3 5 4 4 3 2 4 7 5 1 2 0 2 1 1 2 4 2 3 3 3 3
Wind_Direction
204 177 241 249 254 253 241 240 245 249 240 253 246 196 182 153 181 189 194 195 210 223 231 240 247 250 260 266 268 271 272 275 284 301 327 341 346 348 338 289 259 245 253
201 201 217 240 255 241 253 222 243 238 225 216 105 130 146 155 178 192 206 222 217 231 242 262 281 290 284 276 273 273 275 276 284 294 305 330 347 358 345 333 275 228 198
197 126 224 253 277 322 345 25 339 344 5 325 103 123 152 172 182 186 200 208 352 324 317 318 329 336 325 324 313 290 277 280 290 288 291 323 340 342 350 336 323 194 163
159 119 28 345 323 34 52 45 41 338 262 174 248 190 172 182 191 164 68 110 141 27 85 76 37 29 1 347 336 326 294 281 283 282 288 296 318 313 322 324 316 252 170
134 109 65 69 76 57 60 54 51 27 23 41 294 287 222 76 70 109 107 104 113 142 171 136 80 39 2 342 328 321 305 286 288 274 288 299 309 303 306 294 286 269 200
147 118 103 129 65 82 50 49 66 51 91 208 145 59 108 105 101 107 96 87 153 242 261 195 187 186 50 348 318 315 314 293 279 264 284 297 307 303 297 282 261 245 211
145 131 142 81 74 85 160 275 107 38 14 322 92 13 39 71 102 64 52 207 170 234 254 227 39 287 19 301 295 312 313 294 271 256 282 290 309 312 291 274 244 222 215
141 155 155 139 145 135 18 5 94 110 341 330 102 128 50 349 12 138 160 281 217 200 248 272 293 348 214 213 281 303 292 279 258 251 252 292 333 340 292 269 268 247 217
166 161 160 149 192 106 159 264 95 95 251 339 50 120 103 182 305 260 190 223 251 256 248 283 301 335 306 252 290 283 284 259 251 235 205 335 2 6 44 248 263 274 263
184 167 162 160 167 141 148 153 158 132 161 66 46 40 67 137 186 338 308 241 225 242 214 239 283 301 296 295 268 269 276 250 235 245 239 39 18 9 26 11 261 258 261
199 182 175 182 185 171 154 245 141 137 157 136 148 135 55 37 115 153 288 315 273 248 214 212 223 258 257 231 254 294 268 252 231 190 30 53 45 33 27 27 16 327 277
205 202 171 197 188 169 167 208 194 169 202 172 162 159 156 166 210 211 239 286 245 291 176 193 217 246 304 273 237 254 265 246 184 124 100 84 84 75 55 39 31 23 352
220 213 190 188 190 185 184 164 176 169 195 202 185 181 164 186 194 201 185 266 249 280 324 57 223 229 287 223 228 248 258 228 165 163 119 83 67 58 56 44 29 30 38
216 215 214 199 194 193 189 170 175 212 197 232 253 230 217 217 173 183 201 165 326 308 343 289 294 245 260 306 238 208 223 222 189 122 95 90 74 57 43 43 34 37 30
226 214 196 204 205 190 196 188 205 218 187 248 275 310 249 244 200 161 206 157 160 287 293 301 328 357 318 48 17 223 206 146 119 100 93 93 87 76 56 46 40 47 54
226 201 188 189 206 207 214 204 213 240 210 235 242 233 265 275 242 212 203 183 184 163 245 236 318 205 327 52 360 13 80 103 111 110 98 97 98 83 70 65 49 40 48
183 180 185 192 198 207 214 205 205 201 205 236 241 224 250 250 277 262 234 233 187 186 184 283 241 281 317 18 356 64 123 109 95 88 93 99 90 84 82 77 76 67 60
194 183 190 200 208 210 214 204 216 213 213 238 254 255 261 257 269 271 221 233 205 205 160 246 275 287 245 178 157 94 68 85 70 88 98 86 83 86 78 75 81 77 68
208 197 187 198 207 211 210 218 216 213 219 224 228 226 239 225 256 255 235 236 217 214 213 205 252 244 255 191 198 173 132 91 84 102 90 92 89 86 78 60 61 62 50
205 209 201 207 211 208 217 223 218 228 209 217 226 227 233 236 240 247 230 229 216 198 191 199 237 255 239 245 183 182 202 165 159 110 110 102 107 93 88 87 79 83 75
206 202 191 209 201 180 186 200 216 212 196 219 255 256 243 250 171 227 248 251 201 209 204 206 235 250 274 306 255 218 232 159 151 155 161 169 149 139 117 93 106 111 106
195 197 195 197 156 123 160 161 138 132 116 98 270 338 22 94 16 348 343 305 231 205 212 189 210 221 256 258 294 267 175 168 225 167 152 198 178 192 166 141 115 158 139
180 177 149 129 110 98 3 358 109 125 124 130 92 64 83 50 32 40 55 39 62 59 54 214 218 224 241 210 283 303 302 249 238 165 138 179 170 189 234 131 163 189 157
171 153 145 124 110 63 15 9 227 157 129 99 92 87 104 81 36 17 349 42 41 33 6 356 294 249 251 155 287 295 296 293 49 37 320 226 125 173 213 206 224 268 302
116 117 122 115 112 81 349 72 159 134 105 84 64 48 75 59 18 10 43 30 352 2 25 355 342 351 352 347 338 324 320 358 337 40 21 303 166 134 215 225 215 221 253
108 109 103 109 117 103 37 41 85 129 124 96 74 87 84 96 49 27 67 57 10 21 353 331 315 333 286 4 8 49 7 23 113 306 48 330 166 147 202 209 190 181 205